Location: Ahausen
(50.4985°N, 8.2722°E)
Time: 03:31:46
(UTC+00:00)

ARIANE 5 R/B - Pass Details

Date: 18 September 2020
Orbit: 620 x 657 km, 98.2° (Epoch: 09 October)

Event Time Altitude Azimuth Distance (km) Brightness Sun altitude
Exits shadow 19:37:43 39° 76° (ENE) 948 3.1 -19.8°
Maximum altitude 19:37:58 39° 67° (ENE) 942 3.2 -19.8°
Drops below altitude 10° 19:42:01 10° 359° (N) 2,003 5.5 -20.4°
Sets 19:44:18 0° 352° (N) 2,912 6.6 -20.7°
